Vertical_Velocity
3 2 2 1 0 0 0 1 2 3 3 2 -0 -1 -1 -2 -2 -2 -1 -0 -0 -1 -1 -1 -1 -1 -2 -1 -1 -3 -5 -6 -5 -4 -2 -2 -1 -1 -1 -1 0 0 -1 -2 -2 -2 -2 -0 1 1 0 -1 -5 -7 -8 -7 -3 -1 -0 1 1 1 3 9 22 27 23 10 5
2 3 3 3 2 1 0 0 1 2 2 2 1 -0 -1 -1 -2 -2 -2 -1 0 0 -0 -2 -0 -0 -1 -2 -1 -2 -3 -5 -5 -4 -4 -3 -2 -1 -0 -1 -0 1 1 -0 -1 -1 -2 -1 -0 -0 -0 1 -2 -6 -9 -10 -6 -4 -3 -0 1 1 1 2 15 26 28 14 7
2 1 1 1 0 -1 -1 -2 -1 -0 0 1 1 0 -0 -1 -1 -1 -2 -1 -0 0 -0 -2 -2 -2 -2 -4 -3 -1 -0 -1 -3 -4 -5 -5 -3 -1 -0 -0 -0 0 1 2 1 0 -0 -0 -1 -1 -1 -0 1 -1 -5 -8 -7 -5 -3 -2 2 1 -1 -5 5 24 37 25 13
2 1 -1 -2 -1 -0 -0 -1 -1 -1 -1 -1 -1 -0 0 0 0 0 -0 -1 -1 -1 -1 -1 -3 -4 -4 -3 -2 -1 0 1 -0 -2 -4 -4 -4 -2 -1 -0 -0 -0 0 2 2 1 1 2 0 -1 -2 -0 4 4 1 -6 -9 -9 -7 -4 1 1 -3 -7 2 21 37 38 27
1 1 1 -0 -0 0 0 0 -1 -2 -2 -2 -2 -1 -0 0 0 -0 -1 -2 -2 -1 -1 -1 -2 -2 -1 -0 -0 -1 -1 -0 0 -1 -2 -4 -4 -2 -1 -1 -0 -0 -0 1 2 2 2 3 1 -1 -2 0 6 8 6 -2 -10 -14 -14 -8 -2 -0 -1 -3 3 16 28 33 31
-1 -1 -0 0 -0 -0 -0 -0 -0 -0 -1 -1 -1 -0 -0 -0 -0 -0 -0 -0 -1 -2 -3 -3 -1 -0 -0 -1 -2 -2 -2 -2 -1 -1 -2 -4 -4 -3 -2 -2 -1 -0 0 0 1 2 2 3 2 -0 -1 0 6 10 9 1 -6 -10 -10 -8 -3 1 4 4 7 13 19 21 18
-0 -1 -1 -1 -1 -1 -1 -1 -1 -1 -1 -1 -1 -0 -0 -0 0 1 2 2 -2 -4 -4 -2 -1 -1 -2 -3 -4 -4 -4 -4 -4 -2 -2 -3 -4 -3 -2 -2 -1 -0 1 1 1 1 2 3 2 0 -1 -1 5 10 11 4 1 -3 -6 -5 2 6 9 13 14 14 13 10 5
1 1 0 -0 -0 -1 -1 -1 -1 -2 -1 -1 -0 -0 -0 -0 0 1 1 -1 -3 -3 -2 -1 -1 -0 -0 -1 -1 -2 -3 -4 -5 -4 -3 -2 -4 -4 -3 -2 -2 -1 -0 2 1 1 1 2 2 1 -0 -1 4 9 12 10 3 -7 -13 -7 6 17 26 30 23 17 12 8 8
-1 -1 -1 -0 -0 -1 -1 -1 -1 -1 -1 -0 0 1 1 1 1 1 -1 -4 -2 -0 0 -1 -1 -0 -0 0 -0 -1 -2 -3 -4 -4 -4 -2 -2 -3 -4 -3 -3 -3 -2 0 1 1 1 1 1 1 1 -0 2 6 10 11 1 -12 -20 -9 11 29 41 40 28 21 17 12 15
-1 -2 -2 -3 -3 -2 -2 -2 -1 -0 -0 0 0 0 0 1 1 1 0 -0 -0 -1 -1 -1 -1 -1 -1 -0 -1 -1 -2 -2 -3 -3 -2 -1 -0 -0 -1 -2 -3 -4 -4 -2 0 1 0 1 0 1 2 2 3 7 10 10 0 -11 -17 -9 11 23 28 22 18 16 15 12 12
-1 -1 -1 -2 -3 -3 -2 -3 -2 -2 -1 -0 -0 -1 -1 -0 0 1 1 2 -0 -1 -1 1 1 1 0 -0 -1 -1 -1 -1 -1 -0 0 1 2 2 1 -0 -1 -2 -3 -3 -1 0 0 0 -1 -0 1 4 5 8 11 12 2 -5 -10 -12 -1 6 8 6 8 11 12 11 7
-1 -1 -0 -1 -2 -2 -2 -2 -3 -2 -2 -0 -1 -1 -2 -1 0 1 1 0 -1 -2 -1 1 3 3 2 1 1 -0 -0 -1 1 2 3 4 4 2 0 -1 -2 -3 -3 -3 -1 -0 0 1 -0 -1 -1 2 4 7 10 12 6 1 -5 -12 -10 -6 -3 -4 -1 6 11 12 8
-0 -0 -1 -1 -2 -2 -3 -3 -2 -2 -2 -1 -1 -1 -2 -1 0 1 -0 -2 -2 -2 -1 1 4 4 4 4 3 2 0 -1 0 2 5 6 5 2 -0 -1 -2 -3 -4 -3 -2 -1 1 3 2 0 -1 -1 2 4 6 9 7 4 -1 -6 -9 -10 -12 -15 -11 -4 4 8 6
-0 -0 -0 -1 -2 -2 -3 -3 -3 -3 -3 -2 -1 -1 -1 -2 -0 0 -0 -2 -1 -1 -1 -0 2 4 6 7 6 4 2 -0 0 2 4 6 5 3 1 -1 -1 -3 -4 -3 -2 1 5 8 6 3 1 -1 -0 1 3 5 6 5 3 0 -1 -4 -8 -14 -14 -11 -6 -1 1
-1 -0 -0 -1 -1 -2 -2 -3 -3 -3 -3 -3 -2 -1 -1 -1 -0 -0 -0 -2 -1 -1 -1 -1 -0 2 5 8 8 6 3 1 -0 1 2 3 4 3 1 -0 -1 -2 -2 -2 -1 4 9 12 9 6 4 1 -1 -0 2 6 9 9 8 6 6 5 3 -1 -6 -8 -8 -8 -6
-1 -1 -1 -1 -1 -2 -2 -2 -2 -2 -3 -2 -1 -1 -0 -0 0 0 -0 -1 -1 -1 -1 -1 -1 0 2 5 6 5 3 1 -0 -1 -0 0 2 2 2 0 0 0 1 2 3 5 7 9 7 5 4 3 -2 -1 4 16 20 19 15 10 7 6 6 4 1 -1 -3 -5 -8
-2 -1 -1 -1 -1 -2 -2 -1 -1 -1 -1 -2 -1 -0 0 1 1 1 1 1 -0 -1 -1 -1 -1 -0 -0 1 3 3 1 -0 -1 -0 0 1 2 4 5 4 3 3 3 5 6 7 6 5 3 2 2 1 -3 -3 4 18 25 24 19 11 6 5 4 3 1 1 1 -0 -4
-2 -1 -1 -1 -1 -2 -2 -1 -1 -1 -1 -1 -1 0 1 2 2 2 3 3 1 0 -1 -2 -1 -0 0 0 1 1 0 -0 -0 1 2 4 4 5 7 9 5 3 2 3 5 6 7 7 3 2 2 1 -1 -1 2 8 16 18 16 10 6 4 3 1 2 3 4 2 -1
-2 -2 -2 -2 -1 -1 -1 -1 -1 -1 -0 -0 -0 0 1 2 3 3 2 1 1 0 -0 -1 -2 -1 -0 1 2 2 1 -1 -1 1 3 5 6 5 6 10 7 3 0 1 1 2 4 5 4 4 4 4 3 3 3 4 10 13 12 8 5 3 1 1 4 6 7 6 3
-1 -2 -2 -1 -0 -0 -0 -0 -0 0 0 0 -0 0 1 1 2 2 1 0 0 -0 -0 0 -2 -2 -2 -1 -0 -0 -0 -1 -2 -1 1 4 6 6 6 7 11 7 1 -0 0 1 2 3 4 5 6 6 6 6 6 7 10 11 10 7 5 3 1 2 4 6 7 7 6
-1 -1 -0 0 1 1 1 1 1 1 1 1 0 0 0 1 1 1 2 2 2 1 -0 1 -0 -2 -3 -4 -3 -2 -1 -1 -2 -2 -1 1 4 6 7 6 11 12 7 -2 -1 1 3 4 5 6 6 7 7 8 9 10 11 10 9 8 6 5 4 4 5 5 5 5 5
-1 -0 1 1 1 2 1 1 1 1 1 1 1 0 0 0 0 1 3 4 3 1 0 2 1 -0 -2 -4 -4 -3 -2 -1 -1 -2 -2 -1 2 5 7 6 8 14 16 2 -4 -3 1 4 6 6 6 5 5 6 8 9 10 10 10 10 10 9 9 8 8 7 5 4 3
-0 0 0 1 2 1 1 1 1 1 0 -0 -0 -1 -1 -0 -0 1 2 4 4 2 -0 2 2 1 -0 -1 -2 -3 -3 -3 -3 -3 -3 -4 -2 1 3 5 4 11 19 23 1 -6 -4 -0 4 6 6 5 4 4 4 5 6 8 10 11 12 13 13 12 11 10 8 5 3
-0 0 1 1 1 1 0 0 -0 -1 -1 -1 -1 -1 -1 -1 -1 -1 0 2 4 1 0 3 4 2 1 -0 -1 -2 -3 -4 -4 -5 -5 -5 -4 -3 -2 0 1 4 14 35 17 2 -6 -4 -1 3 5 6 5 4 3 3 4 4 5 6 8 10 11 11 11 10 9 7 4
-0 0 0 0 -0 -0 -0 -1 -1 -1 -1 -0 -0 -0 -0 -1 -1 -1 -1 1 2 1 1 3 5 4 2 -0 -1 -1 -2 -3 -4 -5 -6 -6 -6 -6 -5 -4 -3 -2 4 19 31 18 -0 -4 -2 -0 2 3 3 3 2 2 3 3 3 2 3 4 6 6 7 7 8 7 6
0 -0 -0 -0 -0 -0 -1 -1 -1 -0 -0 -1 -1 -1 -1 -1 -1 -1 -1 -0 1 2 2 1 5 5 4 0 -1 -2 -3 -3 -4 -5 -6 -7 -7 -7 -7 -7 -7 -6 -4 -1 34 28 8 -2 -2 -1 -0 -0 0 -0 -0 0 1 1 2 1 1 1 2 2 3 4 4 4 4
-1 -1 -1 -0 -0 -1 -1 -1 -0 -0 -1 -2 -2 -2 -2 -1 -1 -1 -1 -0 1 2 1 -1 2 4 5 3 -0 -2 -2 -3 -4 -4 -4 -5 -5 -6 -6 -6 -8 -9 -9 -7 27 29 15 -0 -1 -2 -2 -2 -2 -2 -1 -1 -0 -0 0 0 0 -0 -0 -0 -0 0 0 0 -0
-1 -1 -1 -1 -1 -1 -1 -1 -2 -2 -2 -2 -2 -2 -1 -1 -1 -1 -1 -0 -0 -1 -2 -3 -1 2 3 4 1 0 -1 -1 -3 -4 -4 -4 -3 -3 -4 -4 -5 -8 -9 -8 18 26 19 -0 -2 -3 -4 -4 -3 -2 -2 -1 -1 -1 -1 -1 -1 -1 -1 -1 -1 -2 -2 -2 -3
-1 -1 -1 -2 -2 -2 -2 -2 -3 -3 -2 -2 -1 -1 -1 -1 -1 -1 -2 -2 -2 -3 -4 -4 -1 0 1 2 1 0 -0 -1 -2 -3 -4 -5 -4 -4 -3 -3 -3 -4 -6 -8 15 25 20 0 -3 -5 -6 -6 -5 -4 -3 -2 -2 -2 -1 -1 -1 -1 -1 -1 -1 -2 -3 -3 -4
-1 -1 -1 -2 -2 -2 -2 -2 -2 -1 -1 -1 -1 -1 -1 -2 -2 -3 -4 -4 -3 -2 -1 0 0 1 2 2 0 -1 -1 -1 -1 -3 -5 -6 -6 -5 -4 -3 -2 -1 -2 -8 16 26 21 1 -3 -6 -7 -7 -5 -5 -4 -3 -3 -3 -2 -2 -2 -2 -2 -2 -2 -2 -2 -3 -4
-1 -1 -1 -2 -2 -2 -1 -1 -1 -1 -1 -1 -1 -1 -1 -2 -3 -3 -3 -3 -2 -1 0 1 1 1 1 2 0 -0 -1 -1 -2 -3 -5 -6 -6 -6 -5 -3 -1 0 -0 -1 20 26 18 1 -2 -6 -7 -6 -5 -5 -4 -4 -4 -4 -4 -3 -2 -2 -2 -2 -2 -2 -2 -3 -3
-1 -1 -2 -3 -3 -2 -1 -1 -1 -2 -1 -1 -1 -1 -1 -1 -0 -0 -1 -1 -2 -2 -3 -3 -2 -2 -2 -1 -1 -1 -1 -2 -2 -2 -3 -5 -6 -6 -5 -4 -1 -0 2 12 29 24 10 -0 -3 -5 -6 -5 -4 -4 -4 -4 -4 -4 -4 -4 -3 -2 -2 -1 -1 -1 -2 -2 -2
-2 -2 -2 -3 -3 -2 -1 -2 -2 -2 -1 -1 -0 -0 -0 -0 -0 -1 -1 -2 -2 -2 -2 -2 -2 -2 -2 -1 -1 -1 -1 -1 -1 -1 -2 -4 -5 -6 -5 -4 -2 -1 5 21 32 19 1 -2 -4 -4 -4 -3 -3 -3 -3 -3 -4 -4 -4 -3 -2 -1 -0 1 2 2 1 1 1
-3 -3 -3 -3 -2 -2 -2 -2 -2 -2 -2 -2 -1 -0 0 -0 -1 -2 -3 -3 -2 -1 -0 1 1 1 1 3 2 1 1 0 0 -1 -2 -5 -6 -6 -5 -4 -3 -1 6 19 29 15 -3 -4 -3 -3 -2 -2 -2 -1 -1 -2 -2 -2 -2 -2 -1 -0 1 3 4 4 5 5 6
-3 -4 -4 -4 -2 -1 -2 -4 -3 -3 -2 -2 -2 -1 -0 0 0 -1 -2 -2 -1 -0 -0 1 1 1 2 3 3 2 2 2 1 -0 -2 -4 -6 -6 -4 -2 -3 -2 3 11 32 18 -4 -4 -3 -3 -2 -2 -1 -1 -0 0 -0 -0 -0 -0 -0 0 1 2 4 4 5 6 7
-2 -3 -4 -3 -2 -2 -2 -4 -4 -4 -4 -3 -3 -3 -3 -1 -0 0 0 -1 -1 -1 -1 -1 -1 -1 -0 1 0 2 3 4 2 1 -1 -4 -6 -6 -4 -2 -4 -4 -2 2 39 24 -3 -5 -4 -4 -4 -3 -2 -1 -0 1 1 2 4 4 2 1 0 0 1 2 2 3 5
-2 -2 -2 -2 -1 -2 -3 -3 -4 -4 -4 -4 -3 -3 -2 -2 -1 -0 -0 -1 -2 -3 -2 -1 -1 -2 -1 1 1 3 5 7 5 2 -0 -2 -5 -6 -5 -3 -4 -5 -5 -4 42 31 2 -4 -5 -5 -6 -5 -4 -3 -1 -0 1 3 5 7 6 4 1 -0 -1 -1 -0 0 1
-1 -2 -2 -1 -1 -1 -2 -2 -3 -4 -4 -4 -3 -2 -1 -1 -1 -0 -0 -0 -1 -2 -2 -2 -2 -2 -1 1 2 3 5 6 6 4 2 -0 -3 -5 -5 -4 -4 -5 -6 -5 33 33 15 1 -2 -5 -6 -7 -6 -4 -3 -1 -0 1 2 5 6 6 3 0 -1 -1 -1 -1 0
-1 -1 -1 -1 -0 -1 -1 -0 -2 -3 -3 -3 -3 -3 -2 -2 -1 -0 1 1 1 1 0 0 -0 -1 -1 1 2 2 2 4 4 4 3 1 -0 -2 -4 -4 -4 -5 -6 -3 18 31 30 9 3 -2 -5 -6 -5 -4 -3 -2 -2 -1 -1 -0 1 2 2 0 -1 -2 -3 -2 -1
-0 -1 -1 -0 -0 -0 -0 0 -2 -2 -1 -1 -2 -3 -3 -2 -0 1 1 1 2 2 2 2 2 1 -0 -0 1 1 0 2 2 1 1 2 1 -0 -2 -4 -4 -5 -5 -4 4 20 30 23 10 2 -2 -4 -3 -2 -1 -0 -0 -1 -2 -2 -2 -2 -2 -2 -2 -3 -4 -5 -4
1 -0 -1 -0 -0 0 -0 -1 -2 -2 -1 -0 -1 -1 -1 -0 0 0 0 -0 1 3 3 4 4 2 1 0 0 0 -0 1 0 -1 -1 0 0 -0 -2 -4 -4 -5 -5 -4 -2 6 17 31 17 7 1 -0 -0 1 2 4 3 2 1 -1 -1 -2 -3 -3 -3 -4 -4 -5 -5
Height
1488 1486 1484 1482 1480 1478 1476 1474 1473 1471 1469 1467 1465 1463 1461 1459 1457 1455 1454 1452 1450 1448 1446 1444 1442 1439 1437 1435 1433 1431 1429 1428 1426 1425 1423 1422 1421 1419 1418 1417 1417 1416 1415 1414 1414 1414 1413 1413 1413 1413 1413 1412 1412 1412 1412 1412 1412 1411 1411 1411 1412 1412 1412 1413 1413 1414 1413 1413 1413
1487 1485 1483 1482 1480 1478 1476 1474 1472 1471 1469 1467 1465 1463 1461 1459 1458 1455 1453 1452 1450 1448 1446 1443 1441 1438 1436 1434 1432 1430 1428 1426 1425 1423 1422 1420 1419 1418 1417 1415 1415 1414 1413 1413 1412 1412 1412 1411 1411 1411 1411 1410 1411 1411 1410 1409 1409 1409 1409 1409 1409 1409 1410 1411 1411 1413 1413 1411 1411
1486 1484 1483 1481 1479 1477 1475 1473 1472 1470 1468 1466 1465 1463 1461 1459 1458 1455 1453 1452 1450 1448 1445 1443 1440 1438 1435 1433 1431 1429 1428 1426 1423 1422 1420 1418 1417 1416 1415 1414 1413 1412 1412 1411 1410 1410 1410 1409 1409 1409 1409 1408 1408 1408 1408 1407 1407 1407 1407 1407 1407 1407 1408 1408 1409 1411 1411 1409 1408
1486 1484 1482 1480 1478 1477 1475 1473 1472 1470 1468 1466 1464 1463 1461 1459 1457 1455 1453 1451 1449 1447 1445 1442 1439 1437 1435 1433 1430 1428 1427 1425 1423 1420 1418 1416 1415 1414 1413 1412 1411 1410 1409 1409 1408 1408 1408 1408 1408 1408 1407 1407 1407 1406 1405 1404 1404 1404 1404 1404 1404 1405 1406 1406 1408 1408 1408 1407 1405
1485 1483 1482 1480 1478 1477 1475 1473 1472 1470 1468 1466 1464 1462 1461 1459 1457 1455 1453 1451 1448 1446 1444 1442 1439 1437 1434 1432 1430 1428 1425 1423 1421 1419 1417 1415 1413 1412 1411 1410 1409 1408 1408 1407 1406 1406 1406 1406 1406 1406 1405 1405 1405 1405 1403 1402 1401 1402 1402 1402 1402 1403 1404 1405 1406 1407 1407 1405 1403
1484 1483 1481 1480 1478 1477 1475 1473 1472 1470 1468 1466 1464 1462 1460 1458 1456 1454 1453 1450 1448 1446 1443 1441 1439 1436 1434 1431 1429 1426 1424 1422 1420 1418 1415 1413 1412 1410 1409 1408 1407 1407 1406 1405 1404 1404 1404 1404 1404 1403 1404 1404 1404 1403 1402 1400 1398 1398 1399 1400 1401 1401 1402 1403 1405 1406 1405 1402 1402
1485 1483 1481 1479 1478 1476 1475 1473 1471 1469 1467 1465 1463 1462 1460 1458 1456 1454 1452 1450 1447 1445 1443 1440 1438 1436 1433 1430 1428 1425 1423 1420 1418 1416 1414 1412 1410 1409 1408 1406 1405 1405 1404 1403 1403 1402 1402 1402 1402 1402 1402 1402 1403 1402 1401 1398 1396 1396 1397 1399 1399 1401 1402 1403 1403 1403 1403 1401 1401
1485 1483 1481 1479 1478 1476 1474 1473 1471 1469 1467 1465 1463 1461 1459 1457 1455 1453 1451 1449 1447 1444 1442 1440 1437 1435 1432 1430 1427 1424 1422 1419 1417 1415 1413 1411 1409 1408 1406 1405 1404 1403 1402 1402 1401 1400 1400 1400 1400 1400 1400 1401 1401 1401 1400 1398 1396 1396 1397 1398 1399 1401 1402 1401 1401 1401 1401 1400 1401
1484 1482 1481 1479 1477 1476 1474 1472 1470 1468 1467 1465 1463 1461 1459 1457 1455 1453 1451 1448 1446 1444 1442 1439 1437 1434 1432 1429 1426 1424 1421 1419 1416 1414 1412 1411 1409 1407 1405 1404 1403 1401 1400 1400 1399 1398 1398 1398 1398 1398 1398 1399 1399 1400 1399 1398 1397 1397 1397 1397 1398 1399 1399 1398 1398 1399 1399 1400 1400
1484 1482 1480 1478 1477 1475 1473 1471 1469 1468 1466 1464 1462 1460 1458 1457 1455 1453 1450 1448 1446 1444 1442 1439 1436 1433 1431 1428 1426 1423 1421 1418 1416 1414 1412 1410 1408 1407 1405 1403 1401 1400 1399 1398 1398 1397 1396 1396 1396 1396 1396 1397 1398 1398 1398 1397 1397 1396 1396 1396 1396 1396 1395 1395 1397 1398 1398 1399 1399
1484 1482 1480 1478 1476 1474 1473 1471 1469 1467 1465 1463 1462 1459 1458 1456 1454 1452 1450 1448 1446 1443 1441 1439 1436 1433 1430 1428 1425 1423 1420 1418 1416 1414 1412 1410 1408 1406 1404 1402 1401 1399 1398 1397 1396 1395 1395 1394 1394 1394 1394 1395 1395 1396 1396 1397 1396 1395 1395 1395 1394 1393 1393 1393 1395 1397 1398 1398 1398
1483 1482 1480 1478 1476 1474 1472 1470 1468 1467 1465 1463 1461 1459 1457 1455 1453 1451 1449 1447 1445 1443 1441 1439 1436 1433 1431 1428 1425 1423 1420 1418 1416 1414 1412 1410 1407 1405 1403 1401 1399 1398 1397 1396 1395 1394 1393 1393 1393 1392 1392 1393 1393 1394 1395 1395 1395 1395 1394 1394 1394 1393 1393 1393 1393 1395 1396 1397 1397
1483 1482 1480 1478 1476 1474 1472 1470 1468 1466 1464 1462 1460 1458 1456 1454 1453 1451 1449 1447 1445 1443 1441 1439 1437 1434 1431 1428 1426 1423 1421 1418 1416 1414 1412 1410 1407 1404 1402 1400 1398 1397 1396 1395 1393 1393 1392 1392 1391 1390 1390 1391 1391 1392 1393 1394 1394 1394 1394 1393 1394 1394 1394 1394 1394 1394 1394 1394 1395
1483 1482 1480 1478 1476 1473 1472 1469 1468 1466 1464 1462 1460 1458 1456 1454 1452 1450 1448 1446 1445 1443 1441 1438 1437 1434 1432 1429 1427 1424 1421 1419 1416 1414 1412 1409 1407 1404 1402 1399 1398 1396 1395 1393 1392 1392 1391 1391 1390 1389 1388 1388 1389 1390 1391 1391 1392 1392 1392 1392 1393 1393 1394 1394 1395 1394 1394 1393 1394
1483 1481 1479 1477 1475 1473 1471 1469 1467 1465 1463 1461 1460 1458 1456 1454 1452 1450 1448 1446 1444 1443 1441 1438 1437 1434 1433 1430 1427 1424 1422 1419 1417 1414 1412 1409 1407 1405 1402 1399 1397 1396 1394 1393 1392 1391 1391 1390 1388 1388 1387 1387 1387 1388 1388 1389 1389 1390 1390 1391 1391 1392 1392 1393 1393 1393 1393 1393 1393
1483 1481 1479 1477 1475 1473 1471 1469 1467 1465 1463 1461 1459 1458 1456 1454 1452 1450 1448 1446 1444 1442 1440 1439 1437 1434 1433 1430 1428 1425 1423 1420 1417 1414 1412 1410 1408 1405 1403 1400 1398 1396 1394 1392 1391 1390 1389 1388 1388 1386 1386 1386 1385 1386 1387 1388 1388 1388 1388 1388 1389 1390 1390 1391 1391 1391 1392 1392 1392
1482 1480 1478 1476 1474 1473 1471 1469 1467 1465 1463 1461 1459 1458 1456 1454 1452 1450 1448 1447 1444 1442 1440 1439 1437 1435 1433 1430 1428 1426 1423 1421 1418 1415 1413 1410 1408 1406 1404 1402 1399 1396 1394 1393 1391 1389 1388 1387 1386 1385 1384 1384 1385 1385 1386 1386 1386 1385 1385 1386 1387 1388 1388 1389 1389 1389 1389 1390 1390
1482 1480 1478 1476 1474 1472 1470 1468 1467 1465 1463 1461 1459 1457 1456 1454 1452 1450 1448 1447 1444 1443 1440 1439 1437 1435 1433 1431 1428 1426 1424 1422 1419 1417 1414 1412 1409 1407 1406 1404 1401 1398 1395 1393 1391 1389 1388 1386 1385 1384 1384 1384 1384 1385 1385 1384 1383 1383 1382 1383 1384 1386 1387 1387 1388 1388 1388 1388 1389
1481 1479 1477 1475 1473 1472 1470 1468 1466 1464 1462 1460 1458 1457 1455 1454 1452 1450 1448 1446 1444 1443 1441 1439 1437 1435 1433 1431 1429 1427 1425 1423 1420 1418 1415 1413 1411 1408 1406 1405 1403 1400 1397 1395 1393 1391 1388 1387 1385 1384 1383 1383 1384 1384 1384 1383 1383 1382 1381 1381 1382 1383 1385 1386 1387 1387 1387 1388 1388
1481 1479 1477 1475 1473 1472 1470 1468 1466 1464 1462 1460 1458 1457 1455 1453 1452 1450 1448 1446 1444 1442 1441 1439 1437 1435 1433 1431 1429 1427 1425 1423 1421 1419 1416 1414 1412 1409 1407 1406 1405 1402 1399 1397 1395 1393 1391 1388 1387 1385 1384 1383 1383 1383 1383 1383 1382 1381 1380 1380 1381 1383 1383 1385 1385 1386 1386 1387 1388
1481 1479 1477 1475 1473 1472 1470 1468 1466 1464 1462 1460 1458 1456 1454 1453 1451 1450 1448 1446 1444 1442 1440 1439 1437 1435 1433 1431 1429 1427 1425 1424 1422 1420 1418 1415 1413 1411 1408 1406 1406 1404 1402 1399 1397 1395 1393 1391 1389 1387 1386 1384 1384 1383 1383 1383 1382 1382 1381 1381 1381 1382 1383 1383 1384 1384 1385 1386 1387
1481 1479 1477 1475 1473 1472 1470 1468 1466 1464 1462 1460 1458 1456 1454 1453 1451 1450 1448 1446 1444 1442 1440 1439 1437 1435 1433 1431 1429 1427 1426 1424 1423 1421 1419 1417 1414 1412 1410 1408 1406 1405 1404 1401 1399 1398 1396 1394 1392 1390 1388 1387 1385 1384 1384 1383 1383 1382 1382 1382 1382 1382 1383 1383 1383 1383 1384 1385 1386
1481 1479 1477 1475 1473 1472 1469 1468 1465 1463 1462 1459 1458 1456 1454 1452 1451 1449 1448 1446 1444 1442 1440 1439 1437 1435 1433 1432 1430 1428 1426 1424 1423 1421 1419 1418 1415 1413 1411 1409 1407 1405 1405 1404 1401 1399 1398 1396 1394 1393 1391 1389 1388 1387 1386 1385 1385 1384 1383 1383 1383 1383 1383 1383 1383 1383 1384 1384 1385
1480 1478 1477 1475 1473 1471 1469 1467 1465 1463 1461 1459 1457 1455 1453 1452 1450 1449 1448 1446 1444 1442 1440 1439 1437 1435 1433 1432 1430 1428 1426 1424 1422 1421 1419 1418 1416 1414 1412 1410 1408 1405 1405 1406 1403 1401 1399 1398 1396 1394 1393 1391 1390 1389 1388 1388 1387 1386 1385 1385 1384 1384 1384 1384 1384 1384 1385 1385 1386
1480 1478 1476 1474 1473 1471 1469 1467 1465 1463 1461 1459 1457 1455 1453 1452 1450 1448 1447 1445 1444 1442 1440 1438 1437 1435 1433 1432 1430 1428 1426 1424 1423 1421 1419 1417 1416 1414 1413 1411 1409 1407 1405 1405 1406 1403 1400 1398 1397 1396 1394 1393 1392 1391 1390 1389 1389 1388 1388 1387 1386 1386 1385 1385 1385 1386 1386 1386 1387
1480 1478 1476 1474 1472 1470 1468 1467 1465 1463 1461 1459 1457 1455 1453 1452 1450 1448 1447 1445 1443 1442 1440 1438 1437 1436 1434 1432 1430 1428 1426 1425 1423 1421 1419 1418 1416 1414 1413 1411 1410 1408 1406 1404 1407 1405 1401 1399 1398 1397 1396 1394 1393 1393 1392 1391 1390 1390 1389 1388 1388 1388 1387 1387 1387 1387 1387 1387 1388
1479 1478 1476 1474 1472 1470 1468 1466 1464 1463 1461 1459 1457 1455 1453 1452 1450 1448 1447 1445 1443 1442 1440 1438 1437 1435 1434 1432 1430 1428 1427 1425 1423 1422 1420 1418 1416 1414 1413 1411 1410 1409 1408 1405 1407 1405 1402 1399 1398 1398 1397 1395 1395 1394 1393 1393 1392 1391 1391 1390 1389 1389 1389 1388 1388 1388 1388 1388 1389
1479 1477 1475 1473 1472 1470 1468 1466 1464 1462 1460 1458 1457 1455 1453 1452 1450 1448 1446 1445 1443 1441 1440 1438 1437 1435 1434 1432 1430 1428 1427 1425 1423 1422 1420 1419 1417 1415 1413 1411 1410 1409 1408 1407 1407 1406 1403 1400 1399 1398 1398 1397 1396 1395 1394 1394 1393 1392 1392 1391 1390 1390 1390 1389 1389 1389 1389 1389 1390
1479 1477 1475 1473 1471 1469 1467 1465 1463 1462 1460 1458 1457 1455 1453 1451 1450 1448 1446 1444 1443 1441 1439 1438 1437 1435 1433 1432 1430 1429 1427 1425 1424 1422 1420 1419 1418 1416 1414 1412 1410 1409 1408 1407 1407 1406 1403 1401 1400 1399 1398 1398 1397 1396 1395 1394 1394 1393 1393 1392 1391 1391 1390 1390 1390 1390 1390 1390 1390
1478 1477 1474 1473 1471 1469 1467 1465 1463 1462 1460 1458 1457 1455 1453 1451 1449 1448 1446 1444 1443 1441 1440 1438 1437 1435 1434 1432 1430 1429 1427 1426 1424 1423 1421 1419 1418 1416 1414 1413 1411 1410 1409 1407 1407 1406 1404 1401 1400 1400 1399 1398 1397 1397 1396 1395 1394 1393 1393 1393 1392 1392 1391 1391 1391 1391 1391 1391 1391
1478 1476 1474 1472 1470 1468 1467 1465 1463 1461 1459 1458 1456 1454 1453 1451 1449 1447 1446 1444 1443 1441 1440 1438 1437 1435 1434 1432 1431 1429 1428 1426 1424 1423 1421 1420 1418 1417 1415 1413 1412 1411 1409 1408 1408 1406 1404 1402 1401 1401 1400 1399 1398 1397 1396 1395 1395 1394 1393 1393 1393 1392 1392 1392 1392 1392 1392 1392 1392
1478 1476 1473 1472 1470 1468 1466 1465 1463 1461 1459 1458 1456 1454 1452 1451 1449 1447 1446 1444 1443 1441 1439 1438 1436 1435 1433 1432 1430 1429 1428 1426 1425 1423 1422 1421 1419 1418 1416 1414 1413 1411 1410 1409 1409 1407 1404 1403 1402 1402 1401 1400 1399 1398 1397 1396 1395 1394 1394 1393 1393 1393 1393 1393 1393 1393 1393 1393 1393
1477 1475 1473 1471 1469 1468 1466 1464 1462 1460 1459 1457 1455 1454 1452 1450 1448 1447 1445 1444 1442 1441 1439 1438 1436 1435 1433 1432 1430 1429 1428 1426 1425 1424 1423 1421 1420 1418 1416 1414 1413 1411 1411 1411 1411 1408 1405 1404 1403 1403 1402 1401 1400 1399 1398 1397 1396 1395 1395 1394 1394 1394 1394 1394 1394 1394 1393 1393 1393
1476 1474 1473 1471 1469 1468 1466 1464 1462 1460 1458 1457 1455 1453 1452 1450 1448 1446 1445 1443 1442 1441 1440 1438 1437 1435 1434 1433 1431 1429 1428 1427 1425 1424 1423 1422 1420 1419 1417 1415 1413 1412 1411 1412 1411 1409 1406 1406 1405 1404 1403 1402 1401 1400 1399 1398 1398 1397 1396 1395 1395 1395 1395 1395 1395 1394 1394 1394 1394
1476 1474 1472 1470 1469 1467 1465 1463 1462 1460 1458 1456 1454 1453 1451 1450 1448 1446 1445 1443 1442 1441 1439 1438 1437 1435 1434 1433 1431 1429 1428 1427 1425 1424 1423 1422 1421 1419 1417 1416 1414 1413 1412 1411 1412 1410 1408 1407 1406 1405 1404 1403 1402 1401 1400 1400 1399 1398 1397 1397 1396 1396 1396 1396 1395 1395 1395 1395 1395
1476 1474 1472 1470 1469 1467 1465 1463 1461 1460 1458 1456 1454 1453 1451 1449 1448 1446 1445 1443 1442 1440 1439 1438 1436 1435 1434 1433 1431 1429 1428 1427 1425 1424 1423 1422 1421 1419 1418 1416 1415 1414 1413 1411 1413 1411 1408 1408 1407 1406 1404 1403 1403 1402 1401 1401 1400 1399 1399 1398 1398 1397 1397 1397 1396 1396 1396 1396 1396
1476 1474 1472 1470 1469 1467 1465 1463 1461 1459 1458 1456 1454 1453 1451 1449 1448 1446 1445 1443 1441 1440 1439 1438 1436 1435 1434 1433 1431 1430 1428 1427 1426 1424 1423 1422 1421 1420 1418 1417 1415 1414 1413 1412 1414 1412 1408 1408 1407 1406 1405 1404 1403 1403 1402 1402 1402 1401 1400 1400 1399 1398 1398 1398 1398 1397 1397 1397 1397
1476 1474 1472 1471 1469 1467 1465 1463 1462 1459 1458 1456 1454 1453 1451 1449 1448 1446 1444 1443 1442 1440 1439 1437 1436 1435 1434 1433 1431 1430 1429 1428 1426 1425 1423 1422 1421 1420 1419 1417 1416 1415 1414 1413 1414 1413 1410 1408 1407 1407 1406 1405 1404 1403 1403 1403 1403 1402 1402 1401 1400 1400 1399 1399 1399 1398 1398 1398 1398
1476 1474 1473 1471 1469 1467 1466 1464 1462 1460 1458 1456 1454 1452 1451 1449 1448 1446 1445 1443 1442 1441 1439 1438 1436 1435 1434 1433 1431 1430 1429 1428 1426 1425 1424 1423 1422 1421 1419 1418 1416 1415 1414 1413 1413 1413 1411 1408 1408 1407 1406 1405 1404 1404 1403 1403 1403 1403 1402 1402 1401 1401 1400 1400 1400 1400 1399 1399 1399
1476 1474 1473 1471 1469 1468 1466 1464 1462 1460 1458 1456 1454 1452 1451 1449 1448 1446 1445 1443 1442 1441 1439 1438 1436 1435 1434 1433 1431 1430 1429 1428 1426 1425 1424 1423 1422 1421 1420 1418 1417 1416 1415 1414 1413 1413 1412 1410 1409 1408 1407 1406 1405 1404 1404 1404 1403 1403 1403 1402 1402 1402 1401 1401 1401 1400 1400 1400 1400
1477 1475 1473 1471 1470 1468 1467 1464 1462 1460 1458 1456 1454 1453 1451 1449 1448 1446 1445 1443 1442 1441 1440 1438 1437 1435 1434 1433 1431 1430 1429 1428 1426 1425 1424 1423 1422 1421 1420 1418 1417 1416 1415 1414 1413 1412 1412 1412 1410 1408 1407 1406 1405 1404 1404 1404 1404 1403 1403 1403 1403 1402 1402 1402 1401 1401 1401 1401 1401